Weather History for KIGQ - October, 2012

Change the Weather History Date:

Wednesday, October 3, 2012

  Actual Average (KMDW) Record (KMDW)
Temperature  
Mean Temperature 62 °F 59 °F  
Max Temperature 66 °F 68 °F 91 °F (1954)
Min Temperature 58 °F 50 °F 29 °F (1974)
Degree Days  
Heating Degree Days 4 7  
Month to date heating degree days 21  
Since 1 July heating degree days 103  
Cooling Degree Days 0 1  
Month to date cooling degree days 3  
Year to date cooling degree days 1032  
Growing Degree Days 12 (Base 50)    
Moisture  
Dew Point 56 °F    
Average Humidity 85    
Maximum Humidity 91    
Minimum Humidity 71    
Precipitation  
Precipitation 0.00 in 0.10 in 3.95 in (1954)
Month to date precipitation 0.29  
Year to date precipitation 30.15  
Sea Level Pressure  
Sea Level Pressure 29.95 in    
Wind  
Wind Speed 6 mph (South)    
Max Wind Speed 13 mph    
Max Gust Speed -    
Visibility 9 miles    
Events Rain    
T = Trace of Precipitation, MM = Missing Value Source: NWS Daily Summary

Daily Weather History Graph

Daily Weather History Graph

Search for Another Location

Airport or City:

Trip Planner

Search our weather history database for the weather conditions in past years. The results will help you decide how hot, cold, wet, or windy it might be!

Date:

Astronomy

Oct. 03, 2012 Rise Set
Actual Time 6:49 AM CDT 6:27 PM CDT
Civil Twilight 6:21 AM CDT 6:55 PM CDT
Nautical Twilight 5:49 AM CDT 7:27 PM CDT
Astronomical Twilight 5:17 AM CDT 7:59 PM CDT
Moon 8:16 PM CDT (10/3) 10:15 AM CDT (10/3)
Length of Visible Light 12h 33m
Length of Day
11h 38m
Waning Gibbous, 88% of the Moon is Illuminated
Oct 3
Waning Gibbous
Oct 8
Last Quarter
Oct 15
New
Oct 21
First Quarter
Oct 29
Full

Hourly Weather History & Observations

Time (CDT) Temp. Dew Point Humidity Pressure Visibility Wind Dir Wind Speed Gust Speed Precip Events Conditions
12:15 AM 61.7 °F 57.0 °F 85% 29.89 in 10.0 mi NE 8.1 mph - N/A   Overcast
12:35 AM 61.7 °F 57.4 °F 86% 29.89 in 10.0 mi NNE 4.6 mph - N/A   Overcast
12:55 AM 61.7 °F 57.6 °F 86% 29.89 in 10.0 mi NNE 4.6 mph - N/A   Overcast
1:15 AM 61.7 °F 57.2 °F 85% 29.89 in 10.0 mi NE 3.5 mph - N/A   Overcast
1:35 AM 62.1 °F 55.4 °F 79% 29.89 in 10.0 mi East 5.8 mph - N/A   Overcast
1:55 AM 61.9 °F 55.4 °F 79% 29.89 in 10.0 mi NE 5.8 mph - N/A   Overcast
2:15 AM 61.7 °F 55.8 °F 81% 29.88 in 10.0 mi ENE 8.1 mph - N/A   Overcast
2:35 AM 61.0 °F 56.5 °F 85% 29.88 in 10.0 mi ENE 6.9 mph - N/A   Overcast
2:55 AM 60.8 °F 56.8 °F 87% 29.88 in 7.0 mi ENE 4.6 mph - N/A   Overcast
3:15 AM 60.4 °F 57.2 °F 89% 29.89 in 7.0 mi East 4.6 mph - N/A   Overcast
3:35 AM 60.3 °F 57.2 °F 90% 29.89 in 7.0 mi East 5.8 mph - N/A   Overcast
3:55 AM 60.1 °F 57.0 °F 90% 29.89 in 7.0 mi East 3.5 mph - N/A   Overcast
4:15 AM 60.3 °F 57.0 °F 89% 29.89 in 7.0 mi East 3.5 mph - N/A   Overcast
4:35 AM 60.1 °F 56.8 °F 89% 29.90 in 7.0 mi East 3.5 mph - N/A   Overcast
4:55 AM 59.9 °F 57.0 °F 90% 29.91 in 7.0 mi SE 4.6 mph - N/A   Overcast
5:15 AM 59.9 °F 57.2 °F 91% 29.91 in 7.0 mi SSE 4.6 mph - N/A   Overcast
5:35 AM 59.9 °F 57.0 °F 90% 29.91 in 7.0 mi SSE 6.9 mph - N/A   Overcast
5:55 AM 59.7 °F 56.5 °F 89% 29.92 in 7.0 mi South 6.9 mph - N/A   Overcast
6:15 AM 59.4 °F 55.8 °F 88% 29.92 in 10.0 mi South 8.1 mph - N/A   Overcast
6:35 AM 59.2 °F 55.6 °F 88% 29.93 in 10.0 mi SSE 8.1 mph - N/A   Overcast
6:55 AM 59.0 °F 55.4 °F 88% 29.93 in 10.0 mi South 8.1 mph - N/A   Overcast
7:15 AM 58.6 °F 55.4 °F 89% 29.93 in 7.0 mi South 6.9 mph - N/A   Overcast
7:35 AM 58.6 °F 55.4 °F 89% 29.94 in 7.0 mi South 4.6 mph - N/A   Overcast
7:55 AM 59.0 °F 55.6 °F 88% 29.94 in 7.0 mi South 5.8 mph - N/A   Overcast
8:15 AM 59.4 °F 55.9 °F 88% 29.95 in 7.0 mi South 5.8 mph - N/A   Overcast
8:35 AM 59.7 °F 55.8 °F 87% 29.95 in 10.0 mi South 5.8 mph - N/A   Overcast
8:55 AM 59.9 °F 55.6 °F 86% 29.96 in 10.0 mi South 4.6 mph - N/A   Overcast
9:15 AM 59.5 °F 55.4 °F 86% 29.95 in 7.0 mi South 6.9 mph - N/A   Overcast
9:35 AM 59.4 °F 55.4 °F 87% 29.96 in 10.0 mi SSW 5.8 mph - N/A   Overcast
9:55 AM 59.9 °F 55.2 °F 84% 29.96 in 10.0 mi South 5.8 mph - N/A   Overcast
10:15 AM 59.9 °F 55.6 °F 86% 29.96 in 10.0 mi South 5.8 mph - N/A   Overcast
10:55 AM 61.2 °F 56.3 °F 84% 29.96 in 10.0 mi SSE 6.9 mph - N/A   Overcast
11:15 AM 60.3 °F 55.8 °F 85% 29.97 in 7.0 mi SSE 5.8 mph - N/A   Overcast
11:35 AM 60.4 °F 56.3 °F 86% 29.96 in 7.0 mi SSE 6.9 mph - N/A   Overcast
11:55 AM 60.4 °F 56.1 °F 86% 29.97 in 10.0 mi South 6.9 mph - N/A   Overcast
12:15 PM 60.6 °F 56.3 °F 86% 29.97 in 10.0 mi South 6.9 mph - N/A   Overcast
12:35 PM 61.7 °F 56.3 °F 82% 29.96 in 10.0 mi SSW 6.9 mph - N/A   Overcast
12:55 PM 62.8 °F 56.5 °F 80% 29.95 in 10.0 mi South 4.6 mph - N/A   Overcast
1:15 PM 62.4 °F 56.3 °F 80% 29.95 in 10.0 mi South 3.5 mph - N/A   Overcast
1:35 PM 62.6 °F 55.9 °F 79% 29.94 in 10.0 mi WSW 3.5 mph - N/A   Overcast
1:55 PM 64.4 °F 57.2 °F 77% 29.94 in 10.0 mi SW 4.6 mph - N/A   Overcast
2:15 PM 65.1 °F 55.9 °F 72% 29.94 in 10.0 mi South 6.9 mph - N/A   Overcast
2:35 PM 65.5 °F 56.5 °F 73% 29.94 in 10.0 mi South 6.9 mph - N/A   Overcast
2:55 PM 64.9 °F 55.9 °F 73% 29.94 in 10.0 mi SSW 4.6 mph - N/A   Overcast
3:15 PM 65.1 °F 55.9 °F 72% 29.94 in 10.0 mi South 6.9 mph - N/A   Overcast
3:35 PM 65.7 °F 55.9 °F 71% 29.95 in 10.0 mi SSE 8.1 mph - N/A   Overcast
3:55 PM 64.2 °F 57.0 °F 77% 29.95 in 10.0 mi South 11.5 mph - N/A   Overcast
4:15 PM 63.5 °F 57.6 °F 81% 29.96 in 10.0 mi SSW 10.4 mph - N/A   Overcast
4:35 PM 63.5 °F 57.6 °F 81% 29.96 in 7.0 mi SW 12.7 mph - N/A   Overcast
4:55 PM 62.2 °F 57.6 °F 85% 29.96 in 7.0 mi SW 10.4 mph - N/A Rain Light Rain
5:15 PM 62.1 °F 57.6 °F 85% 29.97 in 5.0 mi SW 11.5 mph - N/A   Overcast
5:35 PM 61.7 °F 57.6 °F 86% 29.98 in 7.0 mi SW 10.4 mph - N/A   Overcast
5:55 PM 61.7 °F 57.2 °F 85% 29.98 in 7.0 mi SW 8.1 mph - N/A   Overcast
6:15 PM 61.3 °F 56.8 °F 85% 29.99 in 7.0 mi SSW 8.1 mph - N/A   Overcast
6:35 PM 61.3 °F 56.8 °F 85% 29.99 in 7.0 mi SW 9.2 mph - N/A   Overcast
6:55 PM 61.0 °F 56.3 °F 85% 29.99 in 10.0 mi SW 6.9 mph - N/A   Overcast
7:15 PM 61.2 °F 56.3 °F 84% 30.00 in 10.0 mi SW 6.9 mph - N/A   Overcast
7:35 PM 60.8 °F 56.3 °F 85% 30.00 in 10.0 mi SSW 5.8 mph - N/A   Overcast
7:55 PM 60.8 °F 56.3 °F 85% 30.00 in 10.0 mi SSW 3.5 mph - N/A   Overcast
8:15 PM 59.9 °F 56.3 °F 88% 30.01 in 10.0 mi South 4.6 mph - N/A   Overcast
8:35 PM 59.7 °F 56.3 °F 88% 30.01 in 7.0 mi South 5.8 mph - N/A Rain Light Rain
8:55 PM 59.2 °F 56.5 °F 91% 30.02 in 10.0 mi South 4.6 mph - N/A   Overcast
9:15 PM 59.0 °F 56.3 °F 91% 30.02 in 10.0 mi South 4.6 mph - N/A   Overcast
9:35 PM 58.1 °F 55.6 °F 91% 30.02 in 7.0 mi South 4.6 mph - N/A   Overcast
9:55 PM 59.0 °F 56.3 °F 91% 30.03 in 7.0 mi SSW 4.6 mph - N/A   Overcast
10:15 PM 59.0 °F 56.3 °F 91% 30.03 in 7.0 mi SSW 3.5 mph - N/A   Overcast
10:35 PM 59.0 °F 56.3 °F 91% 30.03 in 7.0 mi SSW 4.6 mph - N/A   Overcast
10:55 PM 59.0 °F 55.4 °F 88% 30.04 in 7.0 mi South 4.6 mph - N/A   Overcast
11:15 PM 58.5 °F 55.9 °F 91% 30.04 in 7.0 mi SSW 3.5 mph - N/A   Overcast
11:35 PM 59.0 °F 56.5 °F 91% 30.04 in 7.0 mi SW 3.5 mph - N/A   Overcast
11:55 PM 59.0 °F 56.5 °F 91% 30.04 in 7.0 mi SSW 4.6 mph - N/A   Overcast